sat.trackr.live / text

‹ back to catalog

STARLINK-5242

NORAD 54173 · 2022-141S

PAYLOAD ACTIVE UNKNOWN

§ Identity

Operator
Country
US
Launch date
2022-10-28
Launch site
AFWTR
Launch vehicle
Mass (kg)
RCS (m²)

Purposes: comms

External: N2YO · Heavens-Above · Gunter

§ Orbital elements

Epoch: 2026-09-20T10:43:10.348320Z

Period
93.85 min
Inclination
53.1599°
Eccentricity
0.0001260
Mean motion
15.34393930 rev/d
Perigee alt
461.9 km
Apogee alt
463.6 km
Semi-major
6,840.9 km
B*
8.7157e-5
RAAN
194.1228°
Arg perigee
98.4838°
Mean anomaly
261.6307°
Rev number
21,547

§ Raw data

STARLINK-52421 54173U 22141S   26263.44664755  .00002569  00000+0  87157-4 0  99932 54173  53.1599 194.1228 0001260  98.4838 261.6307 15.34393930215474

JSON: /api/v1/satellites/54173 · /tle

For live sub-satellite position, see the globe view (requires WebGL).

§ Visibility from observer

Set your observer location to see the next 7 days of passes ≥ 10°. The values pass through the URL so the page stays shareable.

No JS? Fill the form by hand. The geolocation button needs JavaScript.